Back to catalog

CZ-6A DEB

AlivePO
NORAD 54929·DEBRIS·🇨🇳 China

Launched Nov 11, 2022 from Taiyuan Satellite Launch Center

Loading…

Next Passes (next 24 hours)

TLE

FreshSource: Space-Track

Epoch: Sep 13, 2026, 16:43 UTC

1 54929U 22151RS  26256.69719843  .00005989  00000-0  90600-3 0  9997
2 54929  98.6163 328.9139 0066660 355.2915   4.7656 14.73128823201339

Track CZ-6A DEB in real time with AllMySat

Download on the App Store